Texarkana, AR

2:57 AM CST on December 14, 2017 (GMT -0600)
Texarkana Regional-Webb

Weather History for KTXK - January, 2013

Change the Weather History Date:

Tuesday, January 29, 2013

  Actual Average Record
Temperature  
Mean Temperature 63 °F 45 °F  
Max Temperature 73 °F 55 °F 80 °F (1903)
Min Temperature 53 °F 35 °F 10 °F (1900)
Degree Days  
Heating Degree Days 2 20  
Month to date heating degree days 532 619  
Since 1 July heating degree days 1430 1686  
Cooling Degree Days 0 0  
Month to date cooling degree days 4 0  
Year to date cooling degree days 4 0  
Growing Degree Days 14 (Base 50)    
Moisture  
Dew Point 62 °F    
Average Humidity 87    
Maximum Humidity 100    
Minimum Humidity 73    
Precipitation  
Precipitation 0.64 in 0.11 in 1.76 in (1969)
Month to date precipitation 3.67 3.17  
Year to date precipitation 3.67 3.17  
Snow  
Snow 0.00 in - - ()
Month to date snowfall 0.1  
Since 1 July snowfall 2.1  
Snow Depth 0.00 in    
Sea Level Pressure  
Sea Level Pressure 29.70 in    
Wind  
Wind Speed 14 mph (South)    
Max Wind Speed 31 mph    
Max Gust Speed 41 mph    
Visibility 7 miles    
Events Rain , Thunderstorm    
T = Trace of Precipitation, MM = Missing Value Source: NWS Daily Summary

Daily Weather History Graph

Daily Weather History Graph

Search for Another Location

Airport or City:

Trip Planner

Search our weather history database for the weather conditions in past years. The results will help you decide how hot, cold, wet, or windy it might be!

Date:

Astronomy

Jan. 29, 2013 Rise Set
Actual Time 7:13 AM CST 5:44 PM CST
Civil Twilight 6:47 AM CST 6:11 PM CST
Nautical Twilight 6:17 AM CST 6:40 PM CST
Astronomical Twilight 5:48 AM CST 7:10 PM CST
Moon 8:29 PM CST (1/29) 8:21 AM CST (1/29)
Length of Visible Light 11h 23m
Length of Day
10h 31m
Waning Gibbous, 93% of the Moon is Illuminated
Jan 29
Waning Gibbous
Feb 3
Last Quarter
Feb 10
New
Feb 17
First Quarter
Feb 25
Full

Hourly Weather History & Observations

Time (CST) Temp. Dew Point Humidity Pressure Visibility Wind Dir Wind Speed Gust Speed Precip Events Conditions
12:02 AM 66.2 °F 60.8 °F 83% 29.94 in 10.0 mi South 12.7 mph 21.9 mph N/A   Scattered Clouds
12:53 AM 66.0 °F 62.1 °F 87% 29.91 in 10.0 mi SSE 11.5 mph - N/A   Partly Cloudy
1:45 AM 66.2 °F 62.6 °F 88% 29.92 in 10.0 mi South 8.1 mph - N/A   Mostly Cloudy
1:53 AM 66.0 °F 62.1 °F 87% 29.91 in 10.0 mi South 8.1 mph - N/A   Mostly Cloudy
2:53 AM 66.0 °F 62.1 °F 87% 29.91 in 7.0 mi South 8.1 mph - N/A   Overcast
3:38 AM 66.2 °F 62.6 °F 88% 29.90 in 5.0 mi South 11.5 mph - 0.00 in Rain Light Rain
3:53 AM 64.9 °F 63.0 °F 93% 29.89 in 5.0 mi SSE 12.7 mph - 0.00 in Rain Light Rain
4:06 AM 64.4 °F 62.6 °F 94% 29.89 in 5.0 mi SSE 11.5 mph - 0.00 in   Overcast
4:24 AM 64.4 °F 62.6 °F 94% 29.88 in 7.0 mi SSE 11.5 mph - 0.00 in   Overcast
4:38 AM 64.4 °F 62.6 °F 94% 29.87 in 7.0 mi SSE 16.1 mph - 0.00 in   Overcast
4:53 AM 64.0 °F 63.0 °F 96% 29.86 in 6.0 mi SSE 12.7 mph 18.4 mph 0.00 in   Overcast
5:53 AM 64.9 °F 64.0 °F 97% 29.85 in 10.0 mi SSE 15.0 mph 20.7 mph N/A   Overcast
6:53 AM 66.0 °F 64.0 °F 93% 29.85 in 10.0 mi South 12.7 mph - N/A   Overcast
7:53 AM 64.9 °F 64.0 °F 97% 29.83 in 6.0 mi SSE 12.7 mph - 0.00 in   Overcast
8:53 AM 66.0 °F 64.0 °F 93% 29.83 in 5.0 mi SSE 13.8 mph - 0.00 in   Overcast
9:24 AM 66.2 °F 64.4 °F 94% 29.82 in 4.0 mi South 13.8 mph - 0.01 in Rain Light Rain
9:33 AM 66.2 °F 64.4 °F 94% 29.81 in 2.0 mi South 12.7 mph 24.2 mph 0.01 in Rain Light Rain
9:37 AM 66.2 °F 64.4 °F 94% 29.81 in 3.0 mi SSE 15.0 mph 24.2 mph 0.01 in Rain Light Rain
9:53 AM 66.0 °F 64.9 °F 96% 29.79 in 5.0 mi SSE 16.1 mph 25.3 mph 0.01 in Rain Light Rain
10:53 AM 68.0 °F 64.9 °F 90% 29.75 in 10.0 mi SSE 18.4 mph 26.5 mph 0.00 in   Overcast
11:00 AM 69.8 °F 64.4 °F 83% 29.75 in 10.0 mi South 21.9 mph 31.1 mph N/A   Overcast
11:53 AM 70.0 °F 64.9 °F 84% 29.69 in 10.0 mi South 17.3 mph 26.5 mph N/A   Overcast
12:53 PM 70.0 °F 64.9 °F 84% 29.64 in 7.0 mi South 15.0 mph 25.3 mph 0.00 in Rain Light Rain
1:53 PM 71.1 °F 64.9 °F 81% 29.62 in 10.0 mi South 16.1 mph 25.3 mph 0.01 in   Overcast
2:27 PM 71.6 °F 64.4 °F 78% 29.60 in 10.0 mi South 17.3 mph 28.8 mph 0.00 in Rain Light Rain
2:53 PM 72.0 °F 64.9 °F 78% 29.57 in 10.0 mi South 23.0 mph 32.2 mph 0.00 in   Mostly Cloudy
3:53 PM 73.0 °F 64.9 °F 76% 29.54 in 10.0 mi South 18.4 mph 26.5 mph N/A   Overcast
4:53 PM 73.0 °F 64.9 °F 76% 29.53 in 10.0 mi South 18.4 mph 29.9 mph N/A   Overcast
5:18 PM 73.4 °F 64.4 °F 73% 29.53 in 10.0 mi South 13.8 mph 25.3 mph N/A   Overcast
5:53 PM 72.0 °F 64.9 °F 78% 29.52 in 10.0 mi South 13.8 mph 24.2 mph N/A   Overcast
6:53 PM 72.0 °F 64.9 °F 78% 29.50 in 10.0 mi South 15.0 mph 21.9 mph 0.00 in Rain Light Rain
7:09 PM 71.6 °F 66.2 °F 83% 29.51 in 10.0 mi SSW 12.7 mph 20.7 mph 0.00 in Rain Light Rain
7:17 PM 71.6 °F 66.2 °F 83% 29.50 in 7.0 mi SW 11.5 mph - 0.03 in Rain , Thunderstorm Thunderstorms and Rain
7:41 PM 71.6 °F 64.4 °F 78% 29.50 in 10.0 mi South 16.1 mph 27.6 mph 0.03 in Thunderstorm Mostly Cloudy
7:50 PM 71.6 °F 64.4 °F 78% 29.53 in 10.0 mi SSW 12.7 mph 27.6 mph 0.03 in Thunderstorm Mostly Cloudy
7:53 PM 73.0 °F 64.9 °F 76% 29.55 in 10.0 mi WSW 13.8 mph 24.2 mph 0.03 in Thunderstorm Mostly Cloudy
8:01 PM 60.8 °F 55.4 °F 82% 29.57 in 4.0 mi WNW 26.5 mph 41.4 mph 0.05 in Rain , Thunderstorm Light Rain
8:05 PM 57.2 °F 55.4 °F 94% 29.59 in 1.8 mi WNW 17.3 mph 38.0 mph 0.11 in Rain , Thunderstorm Heavy Rain
8:18 PM 57.2 °F 55.4 °F 94% 29.59 in 2.0 mi West 19.6 mph 27.6 mph 0.22 in Rain Heavy Rain
8:23 PM 55.4 °F 55.4 °F 100% 29.60 in 1.5 mi WNW 17.3 mph 27.6 mph 0.30 in Rain , Thunderstorm Heavy Rain
8:30 PM 55.4 °F 55.4 °F 100% 29.63 in 2.0 mi West 17.3 mph 25.3 mph 0.34 in Rain , Thunderstorm Heavy Rain
8:37 PM 55.4 °F 55.4 °F 100% 29.60 in 3.0 mi WNW 12.7 mph 25.3 mph 0.37 in Rain , Thunderstorm Heavy Rain
8:44 PM 55.4 °F 53.6 °F 94% 29.61 in 7.0 mi West 16.1 mph - 0.38 in Rain Light Rain
8:53 PM 55.9 °F 54.0 °F 93% 29.62 in 10.0 mi West 18.4 mph 24.2 mph 0.38 in Rain Light Rain
9:53 PM 55.0 °F 52.0 °F 89% 29.65 in 4.0 mi WNW 17.3 mph 28.8 mph 0.13 in Rain Rain
10:53 PM 54.0 °F 51.1 °F 90% 29.63 in 10.0 mi Calm Calm - 0.08 in Rain Light Rain
11:53 PM 53.1 °F 52.0 °F 96% 29.62 in 10.0 mi South 5.8 mph - N/A   Overcast